Weather History for Bierset, Belgium

Change the Weather History Date:

Friday, January 27, 2012

  Actual Average Record
Temperature  
Mean Temperature 39 °F -  
Max Temperature 43 °F 41 °F 55 °F (2002)
Min Temperature 35 °F 33 °F 19 °F (1998)
Degree Days  
Heating Degree Days 26    
Moisture  
Dew Point 34 °F    
Average Humidity 84    
Maximum Humidity 93    
Minimum Humidity 60    
Precipitation  
Precipitation 0.00 in - - ()
Sea Level Pressure  
Sea Level Pressure 30.16 in    
Wind  
Wind Speed 8 mph ()    
Max Wind Speed 13 mph    
Max Gust Speed 24 mph    
Visibility 6.8 miles    
Events      
Averages and records for this station are not official NWS values.
T = Trace of Precipitation, MM = Missing Value Source: Averaged Metar Reports

Daily Weather History Graph

Daily Weather History Graph

Search for Another Location

Airport:

Trip Planner

Search our weather history database for the weather conditions in past years. The results will help you decide how hot, cold, wet, or windy it might be!

Date:

Astronomy

Jan. 27, 2012 Rise Set
Actual Time 8:21 AM CET 5:20 PM CET
Civil Twilight 7:45 AM CET 5:56 PM CET
Nautical Twilight 7:05 AM CET 6:36 PM CET
Astronomical Twilight 6:26 AM CET 7:15 PM CET
Moon 9:35 AM CET (1/27) 10:34 PM CET (1/27)
Length of Visible Light 10h 11m
Length of Day
8h 59m
Waxing Crescent, 17% of the Moon is Illuminated
Jan 27
Waxing Crescent
Jan 31
First Quarter
Feb 7
Full
Feb 14
Last Quarter
Feb 21
New

Hourly Weather History & Observations

Time (CET) Temp. Windchill Dew Point Humidity Pressure Visibility Wind Dir Wind Speed Gust Speed Precip Events Conditions
12:20 AM 39.2 °F 33.6 °F 37.4 °F 93% 30.04 in - South 8.1 mph - N/A   Clear
12:50 AM 39.2 °F 33.6 °F 37.4 °F 93% 30.06 in - South 8.1 mph - N/A   Clear
1:00 AM 39 °F - 37 °F 88% 30.09 in 6 mi South 6.7 mph - -   Scattered Clouds
1:20 AM 39.2 °F 33.6 °F 35.6 °F 87% 30.06 in - South 8.1 mph - N/A   Clear
1:50 AM 39.2 °F 33.0 °F 35.6 °F 87% 30.06 in 5.0 mi South 9.2 mph - N/A   Unknown
2:20 AM 37.4 °F 30.8 °F 35.6 °F 93% 30.06 in 5.0 mi South 9.2 mph - N/A   Unknown
2:50 AM 37.4 °F 30.8 °F 35.6 °F 93% 30.06 in 5.0 mi South 9.2 mph - N/A   Unknown
3:20 AM 39.2 °F 33.0 °F 35.6 °F 87% 30.06 in - South 9.2 mph - N/A   Clear
3:50 AM 37.4 °F 30.8 °F 35.6 °F 93% 30.06 in - South 9.2 mph - N/A   Clear
4:00 AM 38 °F - 35 °F 87% 30.12 in 7 mi South 8.9 mph - -   Clear
4:20 AM 37.4 °F 30.8 °F 35.6 °F 93% 30.09 in - South 9.2 mph - N/A   Clear
4:50 AM 37.4 °F 31.4 °F 35.6 °F 93% 30.09 in - South 8.1 mph - N/A   Clear
5:20 AM 39.2 °F 33.0 °F 35.6 °F 87% 30.09 in - South 9.2 mph - N/A   Clear
5:50 AM 37.4 °F 30.8 °F 33.8 °F 87% 30.09 in - SSW 9.2 mph - N/A   Clear
6:20 AM 37.4 °F 30.8 °F 33.8 °F 87% 30.12 in 6.2 mi SW 9.2 mph - N/A   Scattered Clouds
6:50 AM 37.4 °F 30.8 °F 33.8 °F 87% 30.12 in 6.2 mi SSW 9.2 mph - N/A   Scattered Clouds
7:00 AM 37 °F - 34 °F 85% 30.16 in 7 mi SSW 8.9 mph - -   Partly Cloudy
7:20 AM 37.4 °F 30.8 °F 33.8 °F 87% 30.12 in 6.2 mi SW 9.2 mph - N/A   Scattered Clouds
7:50 AM 37.4 °F 30.8 °F 33.8 °F 87% 30.15 in 6.2 mi SW 9.2 mph - N/A   Scattered Clouds
8:20 AM 35.6 °F 28.6 °F 33.8 °F 93% 30.15 in 6.2 mi SW 9.2 mph - N/A   Scattered Clouds
8:50 AM 35.6 °F 28.6 °F 33.8 °F 93% 30.15 in 6.2 mi SW 9.2 mph - N/A   Scattered Clouds
9:20 AM 35.6 °F 29.2 °F 33.8 °F 93% 30.15 in 5.0 mi SSW 8.1 mph - N/A   Unknown
9:50 AM 37.4 °F 30.8 °F 33.8 °F 87% 30.15 in 5.0 mi SW 9.2 mph - N/A   Unknown
10:00 AM 37 °F - 34 °F 85% 30.21 in 5 mi SW 8.9 mph - -   Clear
10:20 AM 37.4 °F 30.8 °F 35.6 °F 93% 30.18 in - SSW 9.2 mph - N/A   Clear
10:50 AM 39.2 °F 34.2 °F 35.6 °F 87% 30.18 in - SSW 6.9 mph - N/A   Clear
11:20 AM 39.2 °F 33.0 °F 35.6 °F 87% 30.18 in - South 9.2 mph - N/A   Clear
11:50 AM 39.2 °F 32.5 °F 35.6 °F 87% 30.18 in - South 10.4 mph - N/A   Clear
12:20 PM 39.2 °F 33.6 °F 35.6 °F 87% 30.18 in - SSW 8.1 mph - N/A   Clear
12:50 PM 41.0 °F 35.2 °F 35.6 °F 81% 30.18 in 6.2 mi South 9.2 mph - N/A   Partly Cloudy
1:00 PM 41 °F - 35 °F 73% 30.23 in 9 mi South 8.9 mph - -   Scattered Clouds
1:20 PM 42.8 °F 37.5 °F 35.6 °F 76% 30.18 in 6.2 mi South 9.2 mph - N/A   Partly Cloudy
1:50 PM 42.8 °F 37.0 °F 35.6 °F 76% 30.18 in 6.2 mi SSW 10.4 mph - N/A   Partly Cloudy
2:20 PM 42.8 °F 37.0 °F 33.8 °F 70% 30.18 in 6.2 mi South 10.4 mph - N/A   Partly Cloudy
2:50 PM 42.8 °F 37.0 °F 33.8 °F 70% 30.18 in 6.2 mi SSW 10.4 mph - N/A   Partly Cloudy
3:20 PM 42.8 °F 38.0 °F 35.6 °F 76% 30.18 in 6.2 mi SW 8.1 mph - N/A   Partly Cloudy
3:50 PM 42.8 °F 37.0 °F 33.8 °F 70% 30.18 in 6.2 mi SSW 10.4 mph - N/A   Partly Cloudy
4:00 PM 43 °F - 34 °F 60% 30.23 in 19 mi SSW 11.2 mph - -   Scattered Clouds
4:20 PM 42.8 °F 38.0 °F 33.8 °F 70% 30.21 in 6.2 mi SSW 8.1 mph - N/A   Partly Cloudy
4:50 PM 42.8 °F 37.0 °F 33.8 °F 70% 30.21 in 6.2 mi SSW 10.4 mph - N/A   Partly Cloudy
5:20 PM 41.0 °F 34.7 °F 33.8 °F 76% 30.21 in 6.2 mi SSW 10.4 mph - N/A   Partly Cloudy
5:50 PM 39.2 °F 33.6 °F 33.8 °F 81% 30.21 in 6.2 mi South 8.1 mph - N/A   Partly Cloudy
6:20 PM 39.2 °F 33.6 °F 33.8 °F 81% 30.21 in 6.2 mi South 8.1 mph - N/A   Partly Cloudy
6:50 PM 37.4 °F 30.8 °F 33.8 °F 87% 30.21 in 6.2 mi South 9.2 mph - N/A   Partly Cloudy
7:00 PM 38 °F - 34 °F 78% 30.25 in 12 mi South 8.9 mph - -   Scattered Clouds
7:20 PM 37.4 °F 30.3 °F 33.8 °F 87% 30.21 in - SSW 10.4 mph - N/A   Clear
7:50 PM 37.4 °F 30.3 °F 32.0 °F 81% 30.21 in - South 10.4 mph - N/A   Clear
8:20 PM 37.4 °F 30.8 °F 32.0 °F 81% 30.21 in - South 9.2 mph - N/A   Clear
8:50 PM 37.4 °F 31.4 °F 32.0 °F 81% 30.21 in - South 8.1 mph - N/A   Clear
9:20 PM 35.6 °F 28.0 °F 32.0 °F 87% 30.24 in - South 10.4 mph 21.9 mph N/A   Clear
9:50 PM 35.6 °F 28.0 °F 32.0 °F 87% 30.24 in - South 10.4 mph - N/A   Clear
10:00 PM 36 °F - 32 °F 78% 30.27 in 12 mi South 8.9 mph - -   Partly Cloudy
10:20 PM 35.6 °F 27.1 °F 32.0 °F 87% 30.24 in - South 12.7 mph - N/A   Clear
10:50 PM 35.6 °F 27.5 °F 32.0 °F 87% 30.24 in - South 11.5 mph 24.2 mph N/A   Clear
11:20 PM 35.6 °F 27.5 °F 32.0 °F 87% 30.24 in - South 11.5 mph - N/A   Clear
11:50 PM 35.6 °F 28.0 °F 32.0 °F 87% 30.24 in 5.6 mi South 10.4 mph - N/A   Unknown